Change the Weather History Date:

Thursday, October 10, 2013

  Actual Average (KCHO) Record (KCHO)
Temperature  
Mean Temperature 56 °F 58 °F  
Max Temperature 60 °F 70 °F 92 °F (1904)
Min Temperature 53 °F 46 °F 31 °F (1979)
Degree Days  
Heating Degree Days 8 8  
Month to date heating degree days 65  
Since 1 July heating degree days 123  
Cooling Degree Days 0 1  
Month to date cooling degree days 10  
Year to date cooling degree days 1031  
Growing Degree Days 6 (Base 50)    
Moisture  
Dew Point 54 °F    
Average Humidity 94    
Maximum Humidity 100    
Minimum Humidity 88    
Precipitation  
Precipitation 0.51 in 0.11 in 1.38 in (2013)
Month to date precipitation 1.12  
Year to date precipitation 33.74  
Sea Level Pressure  
Sea Level Pressure 30.05 in    
Wind  
Wind Speed 10 mph (North)    
Max Wind Speed 13 mph    
Max Gust Speed 23 mph    
Visibility 7 miles    
Events Rain    
T = Trace of Precipitation, MM = Missing Value Source: NWS Daily Summary

Daily Weather History Graph

Daily Weather History Graph

Search for Another Location

Airport or City:

Trip Planner

Search our weather history database for the weather conditions in past years. The results will help you decide how hot, cold, wet, or windy it might be!

Date:

Astronomy

Oct. 10, 2013 Rise Set
Actual Time 7:15 AM EDT 6:41 PM EDT
Civil Twilight 6:49 AM EDT 7:07 PM EDT
Nautical Twilight 6:19 AM EDT 7:37 PM EDT
Astronomical Twilight 5:48 AM EDT 8:08 PM EDT
Moon 1:02 PM EDT (10/10) 11:20 PM EDT (10/10)
Length of Visible Light 12h 17m
Length of Day
11h 25m
Waxing Crescent, 35% of the Moon is Illuminated
Oct 10
Waxing Crescent
Oct 11
First Quarter
Oct 18
Full
Oct 26
Last Quarter
Nov 3
New

Hourly Weather History & Observations

Time (EDT) Temp. Dew Point Humidity Pressure Visibility Wind Dir Wind Speed Gust Speed Precip Events Conditions
12:15 AM 55.4 °F 51.8 °F 88% 30.16 in 10.0 mi North 8.1 mph - N/A   Drizzle
12:55 AM 53.6 °F 51.8 °F 94% 30.15 in 10.0 mi North 10.4 mph - 0.02 in   Drizzle
1:15 AM 53.6 °F 51.8 °F 94% 30.14 in 10.0 mi North 11.5 mph 16.1 mph 0.03 in Rain Rain
1:35 AM 53.6 °F 51.8 °F 94% 30.14 in 10.0 mi North 12.7 mph 17.3 mph 0.05 in Rain Light Rain
1:55 AM 53.6 °F 51.8 °F 94% 30.13 in 10.0 mi North 11.5 mph 21.9 mph 0.06 in Rain Rain
2:15 AM 53.6 °F 51.8 °F 94% 30.13 in 10.0 mi North 9.2 mph 17.3 mph 0.01 in Rain Light Rain
2:35 AM 53.6 °F 51.8 °F 94% 30.13 in 10.0 mi North 12.7 mph 23.0 mph 0.02 in Rain Rain
2:55 AM 53.6 °F 51.8 °F 94% 30.11 in 7.0 mi North 12.7 mph 18.4 mph 0.03 in Rain Rain
3:15 AM 53.6 °F 51.8 °F 94% 30.11 in 5.0 mi North 10.4 mph 17.3 mph 0.01 in   Drizzle
3:35 AM 53.6 °F 51.8 °F 94% 30.10 in 5.0 mi North 9.2 mph 18.4 mph 0.01 in   Drizzle
3:55 AM 53.6 °F 51.8 °F 94% 30.10 in 7.0 mi North 11.5 mph 18.4 mph 0.01 in   Overcast
4:15 AM 53.6 °F 51.8 °F 94% 30.10 in 10.0 mi North 12.7 mph 18.4 mph N/A   Overcast
4:35 AM 53.6 °F 51.8 °F 94% 30.10 in 10.0 mi North 9.2 mph - N/A Rain Rain
4:55 AM 53.6 °F 51.8 °F 94% 30.10 in 10.0 mi North 10.4 mph 18.4 mph 0.05 in Rain Rain
5:15 AM 53.6 °F 51.8 °F 94% 30.09 in 10.0 mi North 9.2 mph 17.3 mph 0.01 in Rain Light Rain
5:35 AM 53.6 °F 51.8 °F 94% 30.09 in 10.0 mi North 12.7 mph 19.6 mph 0.02 in Rain Rain
5:55 AM 53.6 °F 51.8 °F 94% 30.09 in 10.0 mi North 10.4 mph 21.9 mph 0.02 in   Light Drizzle
6:15 AM 53.6 °F 51.8 °F 94% 30.09 in 10.0 mi North 10.4 mph - N/A   Overcast
6:35 AM 53.6 °F 51.8 °F 94% 30.09 in 10.0 mi NNE 12.7 mph 20.7 mph N/A   Overcast
6:55 AM 53.6 °F 51.8 °F 94% 30.09 in 10.0 mi North 11.5 mph 18.4 mph N/A   Overcast
7:15 AM 53.6 °F 51.8 °F 94% 30.09 in 10.0 mi North 11.5 mph 18.4 mph N/A Rain Light Rain
7:35 AM 53.6 °F 51.8 °F 94% 30.09 in 10.0 mi NNE 8.1 mph - N/A   Drizzle
7:55 AM 53.6 °F 51.8 °F 94% 30.10 in 10.0 mi North 9.2 mph 18.4 mph N/A   Overcast
8:15 AM 53.6 °F 51.8 °F 94% 30.10 in 3.0 mi North 11.5 mph - 0.01 in   Drizzle
8:35 AM 53.6 °F 51.8 °F 94% 30.09 in 3.0 mi North 9.2 mph 17.3 mph 0.02 in   Drizzle
8:55 AM 55.4 °F 53.6 °F 94% 30.09 in 7.0 mi North 11.5 mph 21.9 mph 0.02 in   Overcast
9:15 AM 55.4 °F 53.6 °F 94% 30.10 in 7.0 mi North 9.2 mph 20.7 mph N/A   Overcast
9:35 AM 55.4 °F 53.6 °F 94% 30.09 in 1.8 mi North 9.2 mph 17.3 mph 0.01 in   Heavy Drizzle
9:55 AM 55.4 °F 53.6 °F 94% 30.09 in 2.5 mi North 9.2 mph 18.4 mph 0.03 in   Heavy Drizzle
10:15 AM 55.4 °F 53.6 °F 94% 30.09 in 3.0 mi North 10.4 mph - 0.03 in   Heavy Drizzle
10:35 AM 55.4 °F 53.6 °F 94% 30.08 in 3.0 mi North 8.1 mph 18.4 mph 0.08 in   Heavy Drizzle
10:55 AM 55.4 °F 53.6 °F 94% 30.08 in 5.0 mi NNE 9.2 mph 17.3 mph 0.11 in   Drizzle
11:15 AM 55.4 °F 53.6 °F 94% 30.07 in 4.0 mi North 8.1 mph 16.1 mph N/A   Drizzle
11:35 AM 55.4 °F 53.6 °F 94% 30.07 in 3.0 mi North 8.1 mph 17.3 mph N/A   Drizzle
11:55 AM 55.4 °F 55.4 °F 100% 30.07 in 2.5 mi North 8.1 mph - 0.01 in   Drizzle
12:15 PM 57.2 °F 55.4 °F 94% 30.06 in 3.0 mi North 5.8 mph - N/A   Drizzle
12:35 PM 57.2 °F 55.4 °F 94% 30.06 in 7.0 mi North 11.5 mph 19.6 mph N/A   Overcast
12:55 PM 57.2 °F 55.4 °F 94% 30.05 in 10.0 mi North 8.1 mph 18.4 mph N/A   Overcast
1:15 PM 57.2 °F 55.4 °F 94% 30.05 in 5.0 mi North 9.2 mph 16.1 mph N/A   Overcast
1:35 PM 57.2 °F 55.4 °F 94% 30.04 in 5.0 mi North 5.8 mph 19.6 mph N/A   Overcast
1:55 PM 57.2 °F 55.4 °F 94% 30.04 in 4.0 mi North 9.2 mph - N/A   Overcast
2:15 PM 57.2 °F 55.4 °F 94% 30.02 in 2.5 mi North 9.2 mph - N/A   Overcast
2:35 PM 57.2 °F 55.4 °F 94% 30.02 in 1.8 mi North 9.2 mph 18.4 mph N/A Rain Rain
2:55 PM 57.2 °F 55.4 °F 94% 30.02 in 1.5 mi North 9.2 mph - N/A   Light Drizzle
3:15 PM 57.2 °F 55.4 °F 94% 30.02 in 2.0 mi North 9.2 mph 16.1 mph N/A   Light Drizzle
3:35 PM 57.2 °F 55.4 °F 94% 30.02 in 4.0 mi North 9.2 mph 16.1 mph 0.01 in   Light Drizzle
3:55 PM 57.2 °F 55.4 °F 94% 30.02 in 4.0 mi North 11.5 mph 16.1 mph 0.01 in   Overcast
4:15 PM 57.2 °F 55.4 °F 94% 30.01 in 3.0 mi North 8.1 mph 18.4 mph N/A   Overcast
4:35 PM 57.2 °F 55.4 °F 94% 30.01 in 2.0 mi North 6.9 mph 18.4 mph N/A   Overcast
4:55 PM 57.2 °F 55.4 °F 94% 30.01 in 1.8 mi North 9.2 mph 18.4 mph N/A   Light Drizzle
5:15 PM 57.2 °F 55.4 °F 94% 30.00 in 1.8 mi North 10.4 mph 18.4 mph N/A   Light Drizzle
5:35 PM 57.2 °F 55.4 °F 94% 30.00 in 2.5 mi North 12.7 mph 19.6 mph N/A   Drizzle
5:55 PM 57.2 °F 55.4 °F 94% 30.00 in 5.0 mi North 11.5 mph 17.3 mph 0.01 in   Light Drizzle
6:15 PM 57.2 °F 55.4 °F 94% 30.00 in 10.0 mi North 9.2 mph 18.4 mph N/A   Overcast
6:35 PM 57.2 °F 55.4 °F 94% 30.00 in 10.0 mi North 9.2 mph 16.1 mph N/A   Overcast
6:55 PM 57.2 °F 55.4 °F 94% 30.00 in 5.0 mi North 9.2 mph 18.4 mph N/A   Overcast
7:15 PM 57.2 °F 55.4 °F 94% 30.00 in 7.0 mi North 9.2 mph 18.4 mph N/A   Drizzle
7:35 PM 57.2 °F 55.4 °F 94% 30.00 in 5.0 mi North 12.7 mph 18.4 mph N/A   Overcast
7:55 PM 57.2 °F 55.4 °F 94% 30.00 in 5.0 mi North 6.9 mph 16.1 mph N/A   Overcast
8:15 PM 57.2 °F 57.2 °F 100% 30.00 in 10.0 mi North 11.5 mph 19.6 mph N/A   Overcast
8:35 PM 59.0 °F 57.2 °F 94% 30.00 in 7.0 mi North 10.4 mph 16.1 mph 0.02 in   Heavy Drizzle
8:55 PM 59.0 °F 57.2 °F 94% 29.99 in 7.0 mi North 11.5 mph 18.4 mph 0.12 in Rain Rain
9:15 PM 59.0 °F 57.2 °F 94% 29.99 in 10.0 mi North 12.7 mph 17.3 mph N/A   Overcast
9:35 PM 59.0 °F 57.2 °F 94% 29.99 in 10.0 mi North 10.4 mph 17.3 mph 0.01 in   Overcast
9:55 PM 59.0 °F 57.2 °F 94% 29.99 in 10.0 mi North 10.4 mph 18.4 mph 0.01 in   Overcast
10:15 PM 59.0 °F 57.2 °F 94% 29.99 in 10.0 mi North 9.2 mph - N/A   Overcast
10:35 PM 59.0 °F 57.2 °F 94% 29.99 in 10.0 mi North 11.5 mph 16.1 mph N/A   Overcast
10:55 PM 60.8 °F 57.2 °F 88% 29.99 in 10.0 mi North 11.5 mph 19.6 mph N/A   Overcast
11:15 PM 60.8 °F 57.2 °F 88% 29.98 in 10.0 mi NNE 9.2 mph - N/A   Overcast
11:35 PM 60.8 °F 57.2 °F 88% 29.97 in 10.0 mi North 11.5 mph 19.6 mph N/A   Overcast
11:55 PM 60.8 °F 57.2 °F 88% 29.96 in 10.0 mi NNE 11.5 mph 18.4 mph N/A   Overcast